Regional Weather Roundup
Issued by NWS

Home | Current Version | Previous Version | Text Only | Print | Product List | Glossary Off
Versions: 1 2 3 4 5 6 7 8 9 10 11 12 13 14 15 16 17 18 19 20 21 22 23 24 25 26 27 28 29 30 31 32 33 34 35 36 37 38 39 40 41 42 43 44 45 46 47 48 49 50

000
ASUS43 KOAX 261510
RWRNE

WEATHER ROUNDUP FOR NEBRASKA
NATIONAL WEATHER SERVICE OMAHA NE
1000 AM CDT TUE JUL 26 2016

NOTES: SATELLITE DATA IS BEING USED TO AUGMENT CLOUD COVER ABOVE
       12000 FEET.
       "FAIR" INDICATES FEW OR NO CLOUDS BELOW 12,000 FEET WITH NO
       SIGNIFICANT WEATHER AND/OR OBSTRUCTIONS TO VISIBILITY.

  * THESE STATIONS DO NOT REPORT WEATHER SUCH AS RAIN...SNOW OR FOG.

NEZ001>004-019>022-054>056-261600-
NEBRASKA PANHANDLE

CITY           SKY/WX    TMP DP  RH WIND       PRES   REMARKS
SCOTTSBLUFF    CLOUDY    74  58  57 SE9       30.07R
ALLIANCE       SUNNY     75  64  68 S15       30.08R
CHADRON        CLOUDY    76  61  59 N6        30.08R
KIMBALL        CLOUDY    74  55  50 S13       30.14S
SIDNEY         SUNNY     76  63  64 S16       30.12S
$$

NEZ057>060-069>072-079>082-261600-
SOUTHWEST NEBRASKA

CITY           SKY/WX    TMP DP  RH WIND       PRES   REMARKS
NORTH PLATTE   SUNNY     76  65  68 S9        30.09S
IMPERIAL       PTSUNNY   74  66  76 S16       30.11F
LEXINGTON      PTSUNNY   73  67  79 S10       30.11S
MCCOOK         CLOUDY    74  66  76 SE12      30.11F
OGALLALA       MOSUNNY   75  65  71 S12       30.09F
$$

NEZ005>010-023>029-035>040-094-261600-
NORTH CENTRAL NEBRASKA

CITY           SKY/WX    TMP DP  RH WIND       PRES   REMARKS
VALENTINE      SUNNY     80  63  55 SW22      30.05F
AINSWORTH      SUNNY     78  67  69 S15       30.07F
BROKEN BOW     SUNNY     74  68  81 S13G23    30.10R
O`NEILL        SUNNY     79  61  54 S13       30.08R
ORD            SUNNY     75  65  70 S15       30.07F
THEDFORD       SUNNY     77  66  68 S16       30.09S
$$

NEZ041-046>049-061>064-073>077-083>087-261600-
SOUTH CENTRAL NEBRASKA

CITY           SKY/WX    TMP DP  RH WIND       PRES   REMARKS
GRAND ISLAND   SUNNY     77  64  64 S9        30.11S
AURORA         SUNNY     77  66  69 S8        30.10F
HASTINGS       SUNNY     76  64  66 S9        30.11S
HEBRON         SUNNY     78  67  69 SE9       30.09F
HOLDREGE       SUNNY     75  65  71 S12       30.11S
KEARNEY *      MOSUNNY   75  66  73 S12       30.11S
YORK           SUNNY     77  68  73 S8        30.11R
$$

NEZ011>018-030>034-042>045-261600-
NORTHEAST NEBRASKA

CITY           SKY/WX    TMP DP  RH WIND       PRES   REMARKS
NORFOLK        SUNNY     77  66  68 S9        30.08F
ALBION         SUNNY     75  67  74 S9        30.09S
BLAIR          SUNNY     78  67  68 S6        30.09S
FREMONT        SUNNY     79  64  60 S10       30.09F
TEKAMAH        SUNNY     78  67  68 S7        30.08S
WAYNE          SUNNY     77  70  78 S9        30.09R
$$

NEZ050>053-065>068-078-088>093-261600-
SOUTHEAST NEBRASKA

CITY           SKY/WX    TMP DP  RH WIND       PRES   REMARKS
LINCOLN        SUNNY     80  67  64 VRB5      30.10R
OMAHA EPPLEY   MOSUNNY   80  65  59 S8        30.08F
BEATRICE       SUNNY     80  67  64 SE8       30.10S
FALLS CITY     SUNNY     77  69  76 E5        30.08S
NEBRASKA CITY  SUNNY     77  68  73 E3        30.10S
PLATTSMOUTH    SUNNY     77  66  68 SE7       30.10S
$$

NEZ044-045-051>053-067-261600-
OMAHA AREA

CITY           SKY/WX    TMP DP  RH WIND       PRES   REMARKS
OMAHA EPPLEY   MOSUNNY   80  65  59 S8        30.08F
BLAIR          SUNNY     78  67  68 S6        30.09S
FREMONT        SUNNY     79  64  60 S10       30.09F
MILLARD        SUNNY     79  65  63 SE7       30.08S
OFFUTT AFB     SUNNY     78  67  68 SE8       30.08F
PLATTSMOUTH    SUNNY     77  66  68 SE7       30.10S
WAHOO          FAIR      77  67  71 SE6       30.09S
$$




USA.gov is the U.S. government's official web portal to all federal, state and local government web resources and services.